Powrót do katalogu

THOR ABLESTAR DEB *

AktywnyUNKNOWN
NORAD 18651·DEBRIS·🇺🇸 United States

Wystrzelony Jun 29, 1961 z Cape Canaveral Space Force Station

Loading…

Następne Przeloty (najbliższe 24 godziny)

TLE

ŚwieżeSource: Space-Track

Epoka: Sep 9, 2026, 18:18 UTC

1 18651U 61015LW  26252.76303622 -.00000026  00000-0  89110-4 0  9992
2 18651  65.6980  69.3743 0752457 248.8727 117.1809 12.40437459614790

Śledź THOR ABLESTAR DEB * w czasie rzeczywistym z AllMySat

Download on the App Store